Location: East Guldeford
(50.9500°N, 0.7500°E)
Time: 09:40:44
(UTC+00:00)

X-37B - Pass Details

Date: 12 May 2021
Orbit: 386 x 389 km, 45.0° (Epoch: 10 June)

Event Time Altitude Azimuth Distance (km) Brightness Sun altitude
Rises 20:34:35 0° 264° (W) 2,274 5.1 -8.2°
Reaches altitude 10° 20:37:26 10° 236° (SW) 1,416 3.6 -8.5°
Maximum altitude 20:39:04 13° 205° (SSW) 1,231 2.9 -8.7°
Drops below altitude 10° 20:40:42 10° 174° (S) 1,412 3.0 -8.9°
Enters shadow 20:41:04 - 169° (SSE) 1,493 3.0 -8.9°
